Regional Weather Roundup
Issued by NWS

Home | Current Version | Previous Version | Text Only | Print | Product List | Glossary Off
Versions: 1 2 3 4 5 6 7 8 9 10 11 12 13 14 15 16 17 18 19 20 21 22 23 24 25 26 27 28 29 30 31 32 33 34 35 36 37 38 39 40 41 42 43 44 45 46 47 48 49 50

000
ASUS43 KBIS 110910
RWRND

NORTH DAKOTA REGIONAL WEATHER ROUNDUP
NATIONAL WEATHER SERVICE BISMARCK ND
400 AM CDT FRI JUL 11 2014

NOTE: "FAIR" INDICATES FEW OR NO CLOUDS BELOW 12,000 FEET WITH NO
SIGNIFICANT WEATHER AND/OR OBSTRUCTIONS TO VISIBILITY.


NDZ001>003-009>011-017-111000-
NORTHWEST NORTH DAKOTA

CITY           SKY/WX    TMP DP  RH WIND       PRES   REMARKS
WILLISTON      CLEAR     61  58  90 NE7       29.89S
MINOT          PTCLDY    66  64  93 NW9       29.84R
MINOT AFB      CLEAR     64  64 100 NW9       29.85R
$$

NDZ018>021-031>035-040>046-111000-
SOUTHWEST NORTH DAKOTA

CITY           SKY/WX    TMP DP  RH WIND       PRES   REMARKS
BISMARCK       CLEAR     64  32  30 NE5       29.82F
DICKINSON      CLEAR     62  60  93 NW8       29.87F FOG
GARRISON         N/A     64  64 100 CALM      29.83F
HETTINGER ARPT CLEAR     63  61  93 N5        29.90R
$$

NDZ004>008-012>016-024-026-027-054-111000-
NORTHEAST NORTH DAKOTA

CITY           SKY/WX    TMP DP  RH WIND       PRES   REMARKS
GRAND FORKS    CLEAR     64  62  93 S5        29.76F
DEVILS LAKE    PTCLDY    64  59  82 SW3       29.79R
$$

NDZ022-023-025-028>030-036>039-047>053-111000-
SOUTHEAST NORTH DAKOTA

CITY           SKY/WX    TMP DP  RH WIND       PRES   REMARKS
FARGO          CLEAR     70  67  90 SE7       29.78F
JAMESTOWN      FOG       65  64  97 S5        29.80R VSB 1/4
$$




USA.gov is the U.S. government's official web portal to all federal, state and local government web resources and services.